Regional Weather Roundup
Issued by NWS

Home | Current Version | Previous Version | Graphics & Text | Print | Product List | Glossary On
Versions: 1 2 3 4 5 6 7 8 9 10 11 12 13 14 15 16 17 18 19 20 21 22 23 24 25 26 27 28 29 30 31 32 33 34 35 36 37 38 39 40 41 42 43 44 45 46 47 48 49 50
000
ASUS43 KMKX 241020
RWRWI

WISCONSIN REGIONAL WEATHER ROUNDUP
NATIONAL WEATHER SERVICE MILWAUKEE/SULLIVAN WI
400 AM CST SAT FEB 24 2018

NOTE: "FAIR" INDICATES FEW OR NO CLOUDS BELOW 12,000 FEET WITH NO
SIGNIFICANT WEATHER AND/OR OBSTRUCTIONS TO VISIBILITY.

WIZ001-002-006>008-014>016-023>028-241100-
NORTHWEST WISCONSIN

CITY           SKY/WX    TMP DP  RH WIND       PRES   REMARKS
SUPERIOR ARPT  FAIR       6   4  91 SW5       30.22F WCI  -2
ASHLAND        FAIR      13  11  92 SW5       30.22F WCI   5
HAYWARD        FOG        5   2  87 CALM      30.20F VSB 1/4
SIREN          FAIR       0  -3  87 CALM      30.21F
CUMBERLAND     FOG       -4  -8  84 CALM      30.19F VSB<1/4
RICE LAKE      FOG        3   1  88 CALM      30.22F VSB<1/4
CHETEK         CLOUDY     6   3  88 CALM      30.22S FOG
LADYSMITH      FOG        6   3  87 CALM      30.22F VSB 1/2
EAU CLAIRE     FOG        5   3  91 CALM      30.22F VSB<1/4
MENOMONIE      FOG        5   2  87 CALM      30.23F VSB<1/4
NEW RICHMOND   CLOUDY     0  -4  82 CALM      30.22F HAZE
OSCEOLA        FAIR      -2  -6  82 CALM      30.25F
$$

WIZ003>005-009-010-017-018-241100-
NORTH CENTRAL WISCONSIN

CITY           SKY/WX    TMP DP  RH WIND       PRES   REMARKS
MANITOWISH WTR CLOUDY     3   2  94 CALM      30.16F FOG
ARBOR VITAE    FOG        9   7  89 CALM      30.16F VSB 1/2
WOODRUFF       FOG        9   7  89 CALM      30.16F VSB 1/2
RHINELANDER    FOG        8   7  95 CALM      30.18S VSB 1/4
EAGLE RIVER      N/A      7   5  89 CALM      30.16S FOG
LAND O LAKES   FOG       10   7  89 CALM      30.18S VSB 1/2
PHILLIPS       FOG        3   1  89 CALM      30.17F VSB<1/4
TOMAHAWK       FOG        1  -2  86 CALM      30.20S VSB 1
MEDFORD        FOG        5   1  86 S5        30.19S VSB<1/4 WCI  -4
MERRILL        FOG        9   7  91 CALM      30.22S VSB<1/4
$$

WIZ029-030-035-036-043>047-241100-
CENTRAL WISCONSIN

CITY           SKY/WX    TMP DP  RH WIND       PRES   REMARKS
WAUSAU         CLOUDY    16  15  96 CALM      30.21S FOG
MOSINEE        FOG       19  18  93 CALM      30.23F VSB 3/4
MARSHFIELD     CLOUDY    16  12  84 CALM      30.20F FOG
STEVENS POINT  FAIR      16  16 100 CALM      30.24F FOG
WAUPACA        FAIR      25  22  88 CALM      30.25F
WAUTOMA        FAIR      20  18  92 CALM      30.25F
WISC RAPIDS    FAIR      18  13  80 CALM      30.24F HAZE
CAMP DOUGLAS   FOG       16  14  93 CALM      30.21F VSB 1/2
$$

WIZ011>013-019>022-031-037>040-048>050-241100-
NORTHEAST WISCONSIN

CITY           SKY/WX    TMP DP  RH WIND       PRES   REMARKS
ANTIGO         MOCLDY     8   6  92 S3        30.21R FOG
SHAWANO        CLOUDY    30  24  79 CALM      30.24F
OCONTO         CLOUDY    30  26  85 CALM      30.25F
STURGEON BAY   CLOUDY    30  25  81 CALM      30.26F
GREEN BAY      CLOUDY    30  22  72 NW3       30.24F
MANITOWOC      CLOUDY    30  24  78 NW3       30.26S
APPLETON       MOCLDY    23  18  80 W5        30.22F WCI  17
CLINTONVILLE   FAIR      27  22  80 CALM      30.24F
OSHKOSH        FAIR      26  21  81 CALM      30.23F
$$

WIZ032>034-041-042-053>061-241100-
SOUTHWEST WISCONSIN

CITY           SKY/WX    TMP DP  RH WIND       PRES   REMARKS
LA CROSSE      FAIR      21  18  88 CALM      30.24F FOG
SPARTA         FAIR      16  15  96 CALM      30.24F FOG
VIROQUA        FAIR      20  20 100 E3        30.19F
BOSCOBEL       FAIR      25  22  88 NE3       30.22F FOG
PRAIRIE DU CHI FAIR      23  20  88 NW3       30.21F FOG
PLATTEVILLE    FAIR      26  26 100 NE9       30.19S WCI  17
$$

WIZ056-057-062-063-064-067-068-241100-
SOUTH CENTRAL WISCONSIN

CITY           SKY/WX    TMP DP  RH WIND       PRES   REMARKS
REEDSBURG      FAIR      24  23  97 CALM      30.22F
BARABOO/DELLS  FAIR      25  22  87 CALM      30.22F
LONE ROCK      FAIR      27  23  85 E6        30.22F FOG     WCI  20
MINERAL POINT  CLOUDY    28  28 100 NE10      30.17F WCI  19
MADISON        CLOUDY    27  23  85 NE8       30.22F WCI  19
MIDDLETON      CLOUDY    29  25  85 NE6       30.22F WCI  23
WATERTOWN      CLOUDY    28  25  87 N7        30.22F WCI  21
MONROE         FAIR      28  27  93 NE14      30.19S WCI  17
JANESVILLE     FAIR      30  30 100 NE5       30.21F WCI  25
$$

WIZ051-052-058>065-066-070>072-241100-
SOUTHEAST WISCONSIN

CITY           SKY/WX    TMP DP  RH WIND       PRES   REMARKS
MILWAUKEE      MOCLDY    32  25  75 NE7       30.23S WCI  26
WAUKESHA       CLOUDY    28  23  80 NE6       30.24S WCI  22
MILWAUKEE/TIMM CLOUDY    30  23  74 NE3       30.25R
RACINE         CLOUDY    32  26  78 NE8       30.25S WCI  25
BURLINGTON     FAIR      28  24  87 NE3       30.22F
KENOSHA        FAIR      29  24  82 NE5       30.23S WCI  24
FOND DU LAC    CLOUDY    29  21  72 NE5       30.23F WCI  24
SHEBOYGAN      CLOUDY    30  23  75 N6        30.23F WCI  24
WEST BEND      MOCLDY    28  25  86 NE3       30.23F
JUNEAU         FAIR      26  22  82 N3        30.24S
$$

LSZ147-162-241100-
LAKE SUPERIOR

STATION/POSITION TIME  TEMP    WIND        PRES    WAVE
                       AIR SEA DIR/SP/G            HT/PER
                 (UTC) (F)     (DEG/KT/KT) (MB)    (FT/S)
DEVILS ISLAND    1000   22     270/ 14/ 15 1024.3F
SAXON HARBOR     0940   17     200/  3/  7 1023.0S
$$

LMZ867-665-643>646-241100-
LAKE MICHIGAN

STATION/POSITION TIME  TEMP    WIND        PRES    WAVE
                       AIR SEA DIR/SP/G            HT/PER
                 (UTC) (F)     (DEG/KT/KT) (MB)    (FT/S)
NORTHPORT PIER   0940   31                 1024.4R
KEWAUNEE LAKESHO 0954   31     360/  3/  5 1023.6F
SHEBOYGAN LAKESH 1000   31     350/ 10/ 11 1024.5F
PORT WASHINGTON  0930   30     360/  3/  5 1025.1F
KENOSHA   LAKESH 1000   33      30/ 10/ 11 1023.7
$$

TC  - TEMPERATURE IN CELSIUS
VSB - VISIBILITY IN STATUTE MILES
WCI - WIND CHILL INDEX
HX  - HEAT INDEX




USA.gov is the U.S. government's official web portal to all federal, state and local government web resources and services.